Regional Weather Roundup
Issued by NWS

Home | Current Version | Previous Version | Graphics & Text | Print | Product List | Glossary On
Versions: 1 2 3 4 5 6 7 8 9 10 11 12 13 14 15 16 17 18 19 20 21 22 23 24 25 26 27 28 29 30 31 32 33 34 35 36 37 38 39 40 41 42 43 44 45 46 47 48 49 50
000
ASUS43 KIND 260859
RWRIN

WEATHER ROUNDUP FOR INDIANA
NATIONAL WEATHER SERVICE INDIANAPOLIS IN
400 AM EST MON JAN 26 2015

NOTE: "FAIR" INDICATES FEW OR NO CLOUDS BELOW 12,000 FEET WITH NO
SIGNIFICANT WEATHER AND/OR OBSTRUCTIONS TO VISIBILITY.

* - STATION DOES NOT REPORT WEATHER SUCH AS PRECIPITATION OR FOG.

+ - STATION NOT QUALITY CONTROLLED BY THE NATIONAL WEATHER SERVICE.
    USE DATA WITH CAUTION...ESPECIALLY DEWPOINT AND RELATIVE
    HUMIDITY OBSERVATIONS.

INZ001>003-010>013-019-020-261000-
NORTHWEST INDIANA

CITY           SKY/WX    TMP DP  RH WIND       PRES   REMARKS
VALPARAISO     NOT AVBL

$$

LMZ046-743>745-261000-
SOUTHERN LAKE MICHIGAN

STATION/POSITION TIME  TEMP WIND        PRES
                       AIR  DIR/SP/G
                 (UTC) (F)  (DEG/KT/KT) (MB)
MICHIGAN CITY    0800   18   50/  9/ 13   N/A

$$

INZ004-005-014>016-021>024-261000-
NORTH CENTRAL INDIANA

CITY           SKY/WX    TMP DP  RH WIND       PRES   REMARKS
GOSHEN         CLEAR     12   6  77 NE5       29.94S WCI   4
PERU/GRISSOM   MOCLDY    16  10  79 NE6       29.92S WCI   7
SOUTH BEND     CLEAR     14   7  73 CALM      29.96F

$$

INZ006>009-017-018-025>027-261000-
NORTHEAST INDIANA

CITY           SKY/WX    TMP DP  RH WIND       PRES   REMARKS
ANGOLA *+      CLEAR     10   7  85 N3        29.91S
FORT WAYNE     MOCLDY    19   9  65 N9        29.93R WCI   8

$$

INZ028-029-035-036-043>045-051>053-261000-
WEST CENTRAL INDIANA

CITY           SKY/WX    TMP DP  RH WIND       PRES   REMARKS
GREENCASTLE +  CLOUDY    25  16  68 N10       29.92R WCI  15
LAFAYETTE      MOCLDY    23  17  78 N7        29.95S WCI  15
TERRE HAUTE    CLOUDY    27  22  81 N9        29.95R WCI  18

$$

INZ030>032-037>040-046>048-054>057-064-065-261000-
CENTRAL INDIANA

CITY           SKY/WX    TMP DP  RH WIND       PRES   REMARKS
INDIANAPOLIS   CLOUDY    20  15  81 N16       29.90R WCI   6
-EAGLE CREEK   CLOUDY    22  16  78 N15G21    29.90R WCI   9
KOKOMO *+      MOCLDY    19  12  73 NE7       29.93R WCI  10
MT COMFORT *+  CLOUDY    21  10  63 N16       29.89R WCI   7
SHELBYVILLE    CLOUDY    22  16  78 N16G24    29.87R WCI   8

$$

INZ033-034-041-042-049-050-058-059-261000-
EAST CENTRAL INDIANA

CITY           SKY/WX    TMP DP  RH WIND       PRES   REMARKS
MUNCIE         CLOUDY    19  13  77 NE15      29.89R WCI   5

$$

INZ060-061-067>069-081>083-085>088-261000-
SOUTHWEST INDIANA

CITY           SKY/WX    TMP DP  RH WIND       PRES   REMARKS
EVANSVILLE     CLOUDY    31  24  75 N9G17     29.93R WCI  23
HUNTINGBURG *+ CLOUDY    27  21  80 N13G26    29.90R WCI  16

$$

INZ062-063-066-070>080-084-089>092-261000-
SOUTH CENTRAL AND SOUTHEAST INDIANA

CITY           SKY/WX    TMP DP  RH WIND       PRES   REMARKS
BLOOMINGTON    CLOUDY    24  19  81 N14       29.89R WCI  12
SEYMOUR +      CLOUDY    25  19  80 N20G28    29.86R WCI  11

$$



USA.gov is the U.S. government's official web portal to all federal, state and local government web resources and services.